[[{"header":{"parameterUnit":"m.s-1","parameterCategory":1,"la1":30.2991,"la2":30.254,"lo1":-89.0895,"lo2":-89.0444,"dx":0.0017,"dy":0.0017,"nx":28,"ny":28,"refTime":"2022-12-16T15:00:00:Z","depth":0,"parameterNumber":2,"parameterNumberName":"U-component_of_WINDS"},"data":[0,0,0,0,0,0,0,0,0,0,0,0,0,0,0,0,0,0,0,0,0,0,0,0,0,0,0,0,0,0,0,0,0,0,0,0,0,0,0,0,0,0,0,0,0,0,0,0,0,0,0,0,0,0,0,0,0,0,-1.3815,-1.3816,0,-1.3921,-1.3922,-1.3924,-1.3854,-1.385,-1.3847,-1.3844,-1.3956,-1.3962,-1.3968,0,0,0,0,0,0,0,0,0,0,0,0,0,-1.3555,-1.356,-1.3815,-1.3816,-1.3818,-1.3921,-1.3922,-1.3924,-1.3854,-1.385,-1.3846,-1.3843,-1.3954,-1.3961,-1.3968,0,0,0,0,0,0,0,0,0,0,0,0,0,-1.3665,-1.3562,-1.3815,-1.3795,-1.3795,-1.3921,-1.3922,-1.3924,-1.3855,-1.385,-1.3845,-1.3841,-1.3952,-1.396,-1.3969,-1.4121,0,0,-1.3997,-1.4001,0,0,0,0,0,0,0,0,-1.3659,-1.3675,-1.3797,-1.3797,-1.3796,-1.3869,-1.3872,-1.399,-1.3856,-1.3832,-1.3844,-1.3838,-1.3931,-1.3942,-1.3972,-1.4127,-1.4131,-1.3997,-1.4003,-1.4007,-1.4009,0,0,0,0,0,0,0,-1.3652,-1.367,-1.3857,-1.3799,-1.3798,-1.3782,-1.3792,-1.3894,-1.3908,-1.3834,-1.3829,-1.3842,-1.393,-1.3964,-1.3974,-1.4133,-1.3997,-1.4005,-1.4011,-1.4014,-1.4419,-1.4424,0,0,0,0,0,0,-1.3645,-1.3664,-1.3854,-1.386,-1.3714,-1.3791,-1.3802,-1.3851,-1.3906,-1.391,-1.3846,-1.3839,-1.3951,-1.3964,-1.3978,-1.4162,-1.4007,-1.4015,-1.402,-1.4414,-1.442,-1.4426,0,0,0,0,0,0,-1.364,-1.3663,-1.3849,-1.3761,-1.3783,-1.38,-1.3855,-1.3855,-1.3889,-1.3916,-1.3918,-1.3878,-1.3947,-1.3965,-1.4086,-1.4165,-1.4019,-1.4027,-1.4407,-1.4416,-1.4423,-1.453,0,0,0,0,0,0,-1.3633,-1.3661,-1.3719,-1.3763,-1.3788,-1.3956,-1.386,-1.3861,-1.3904,-1.3895,-1.3946,-1.395,-1.3945,-1.4073,-1.4095,-1.4174,-1.4034,-1.4401,-1.4411,-1.4421,-1.4519,-1.454,-1.4558,0,0,0,0,0,-1.3624,-1.3745,-1.3722,-1.3745,-1.3861,-1.396,-1.3975,-1.3966,-1.3911,-1.3969,-1.3986,-1.3948,-1.4151,-1.4086,-1.411,-1.4193,-1.4396,-1.4408,-1.442,-1.4511,-1.4536,-1.4558,0,0,0,0,0,0,-1.3711,-1.375,-1.3726,-1.3864,-1.391,-1.3948,-1.4022,-1.3993,-1.4056,-1.4046,-1.4032,-1.4044,-1.4171,-1.4194,-1.412,-1.4344,-1.4265,-1.4283,-1.4326,-1.435,-1.4369,-1.4363,-1.4042,0,0,0,0,0,-1.3746,-1.3823,-1.3853,-1.3973,-1.3997,-1.4006,-1.4049,-1.4038,-1.4085,-1.4104,-1.413,-1.4177,-1.4252,-1.4302,-1.4371,-1.4521,-1.4532,-1.4589,-1.4609,-1.4625,-1.4642,-1.4724,-1.4751,-1.4466,-1.4466,-1.4465,0,0,-1.3821,-1.3852,-1.3901,-1.3992,-1.4025,-1.4107,-1.4023,-1.4112,-1.4173,-1.4117,-1.4234,-1.4255,-1.4307,-1.4443,-1.4504,-1.4466,-1.4722,-1.464,-1.4653,-1.4661,-1.4739,-1.4766,-1.479,-1.4474,-1.4473,-1.4471,0,0,-1.3999,-1.4028,-1.4133,-1.4167,-1.4219,-1.4224,-1.4249,-1.4292,-1.4303,-1.4419,-1.438,-1.4452,-1.458,-1.4619,-1.4656,-1.4847,-1.4816,-1.487,-1.4974,-1.5054,-1.5077,-1.5097,-1.5168,-1.5193,-1.4885,-1.4886,-1.4886,0,-1.4085,-1.4206,-1.419,-1.4283,-1.4324,-1.4276,-1.4382,-1.4417,-1.4489,-1.452,-1.4474,-1.4635,-1.4666,-1.4812,-1.4859,-1.4889,-1.4919,-1.4866,-1.5074,-1.5094,-1.5113,-1.518,-1.5207,-1.4892,-1.4892,-1.4891,-1.489,0,-1.4311,-1.4394,-1.4472,-1.4543,-1.4592,-1.4691,-1.4692,-1.4744,-1.4728,-1.4738,-1.4857,-1.4893,-1.497,-1.5003,-1.4988,-1.5147,-1.5122,-1.5076,-1.4997,-1.5147,-1.521,-1.5236,-1.4902,-1.4899,-1.4897,-1.4896,0,0,-1.4551,-1.4609,-1.4639,-1.4671,-1.4723,-1.4788,-1.4884,-1.4959,-1.5005,-1.5055,-1.5138,-1.5247,-1.5205,-1.5246,-1.5235,-1.5305,-1.5458,-1.5251,-1.5252,-1.5291,-1.5638,-1.5675,-1.5705,-1.5435,-1.5439,-1.5443,-1.5634,0,-1.4734,-1.4902,-1.4891,-1.505,-1.5128,-1.5083,-1.5167,-1.5209,-1.522,-1.5289,-1.53,-1.5379,-1.5316,-1.5341,-1.5408,-1.5425,-1.5528,-1.541,-1.5514,-1.5518,-1.5507,-1.5738,-1.5777,-1.5956,-1.5659,-1.5663,-1.5666,0,-1.4971,-1.503,-1.5197,-1.5238,-1.527,-1.5347,-1.5414,-1.5479,-1.5526,-1.5529,-1.5575,-1.5552,-1.565,-1.5566,-1.5702,-1.5623,-1.5664,-1.5678,-1.5685,-1.5698,-1.5604,-1.576,-1.6013,-1.6041,-1.5704,-1.5701,-1.5698,0,-1.5134,-1.5254,-1.537,-1.5398,-1.5448,-1.5503,-1.5526,-1.5567,-1.5613,-1.5671,-1.5701,-1.577,-1.581,-1.5864,-1.5861,-1.5799,-1.6001,-1.5915,-1.6008,-1.6009,-1.6057,-1.6054,-1.6323,-1.6076,-1.6076,-1.6075,-1.6075,0,-1.5343,-1.5448,-1.5443,-1.5516,-1.5632,-1.5616,-1.5732,-1.575,-1.5787,-1.5862,-1.5825,-1.5897,-1.5886,-1.5958,-1.5955,-1.607,-1.6087,-1.6094,-1.6093,-1.61,-1.61,-1.613,-1.6119,-1.6083,-1.6081,-1.608,-1.6078,0,-1.5546,-1.5547,-1.5671,-1.5707,-1.5718,-1.5803,-1.5835,-1.5903,-1.5909,-1.6005,-1.6027,-1.6038,-1.6121,-1.6121,-1.6216,-1.6214,-1.6356,-1.6339,-1.6341,-1.6339,-1.6433,-1.6426,-1.6734,-1.6775,-1.6498,-1.6501,-1.6503,0,-1.5681,-1.5761,-1.5805,-1.5852,-1.5879,-1.5955,-1.6001,-1.5989,-1.6038,-1.6097,-1.6159,-1.6237,-1.63,-1.6434,-1.6452,-1.6524,-1.6511,-1.6613,-1.6522,-1.6526,-1.6516,-1.6513,-1.6522,-1.6633,-1.6636,-1.6639,-1.6641,0,-1.5922,-1.5918,-1.5985,-1.6054,-1.6109,-1.6162,-1.6211,-1.6252,-1.6244,-1.6302,-1.6385,-1.6434,-1.653,-1.661,-1.6679,-1.6703,-1.6673,-1.6668,-1.6695,-1.6705,-1.6704,-1.6709,-1.6394,-1.6663,-1.6661,-1.6659,-1.6658,-1.6657,-1.6098,-1.6167,-1.6209,-1.6286,-1.6321,-1.6367,-1.6433,-1.6448,-1.6517,-1.6594,-1.6581,-1.6675,-1.6719,-1.6809,-1.684,-1.6914,-1.6878,-1.6915,-1.6925,-1.6936,-1.6948,-1.6689,-1.6926,-1.6925,-1.6924,-1.6924,-1.6923,0,-1.634,-1.6364,-1.6434,-1.6504,-1.6564,-1.6526,-1.6578,-1.6631,-1.6714,-1.6757,-1.6819,-1.6916,-1.6992,-1.7014,-1.7088,-1.7143,-1.7131,-1.7164,-1.7162,-1.7169,-1.6973,-1.6945,-1.7173,-1.7173,-1.7173,-1.7173,-1.7172,-1.7172,-1.6474,-1.659,-1.6591,-1.6724,-1.6747,-1.6838,-1.6871,-1.6914,-1.6949,-1.7058,-1.7121,-1.7134,-1.7169,-1.7245,-1.7314,-1.7319,-1.7349,-1.7389,-1.7388,-1.7207,-1.7182,-1.7158,-1.7132,-1.7395,-1.7395,-1.7577,-1.7579,-1.758]},{"header":{"parameterUnit":"m.s-1","parameterCategory":1,"la1":30.2991,"la2":30.254,"lo1":-89.0895,"lo2":-89.0444,"dx":0.0017,"dy":0.0017,"nx":28,"ny":28,"refTime":"2022-12-16T15:00:00:Z","depth":0,"parameterNumber":3,"parameterNumberName":"V-component_of_WINDS"},"data":[0,0,0,0,0,0,0,0,0,0,0,0,0,0,0,0,0,0,0,0,0,0,0,0,0,0,0,0,0,0,0,0,0,0,0,0,0,0,0,0,0,0,0,0,0,0,0,0,0,0,0,0,0,0,0,0,0,0,-5.9062,-5.9064,0,-5.9229,-5.9231,-5.9233,-5.9134,-5.9129,-5.9124,-5.912,-5.9287,-5.9296,-5.9304,0,0,0,0,0,0,0,0,0,0,0,0,0,-5.8653,-5.8661,-5.9062,-5.9064,-5.9066,-5.9229,-5.9231,-5.9234,-5.9135,-5.9129,-5.9123,-5.9118,-5.9284,-5.9294,-5.9305,0,0,0,0,0,0,0,0,0,0,0,0,0,-5.8826,-5.8663,-5.9062,-5.9037,-5.9036,-5.9229,-5.9231,-5.9234,-5.9136,-5.9129,-5.9121,-5.9115,-5.928,-5.9293,-5.9307,-5.9532,0,0,-5.9347,-5.9353,0,0,0,0,0,0,0,0,-5.8816,-5.8841,-5.9038,-5.9039,-5.9038,-5.9153,-5.9148,-5.9334,-5.9138,-5.9098,-5.912,-5.9111,-5.9248,-5.9264,-5.931,-5.954,-5.9547,-5.9349,-5.9357,-5.9362,-5.9366,0,0,0,0,0,0,0,-5.8805,-5.8833,-5.9128,-5.9041,-5.9041,-5.9015,-5.9032,-5.9183,-5.9211,-5.9101,-5.9094,-5.9115,-5.9247,-5.9298,-5.9314,-5.9549,-5.9348,-5.936,-5.9368,-5.9373,-5.9971,-5.9978,0,0,0,0,0,0,-5.8795,-5.8824,-5.9123,-5.9133,-5.8908,-5.9029,-5.9047,-5.9124,-5.9209,-5.9215,-5.9121,-5.911,-5.9279,-5.9298,-5.9319,-5.9589,-5.9362,-5.9375,-5.9382,-5.9963,-5.9973,-5.9981,0,0,0,0,0,0,-5.8787,-5.8823,-5.9116,-5.8977,-5.9012,-5.9043,-5.913,-5.9131,-5.9182,-5.9225,-5.9228,-5.9169,-5.9274,-5.93,-5.948,-5.9593,-5.9381,-5.9393,-5.9954,-5.9966,-5.9977,-6.013,0,0,0,0,0,0,-5.8775,-5.882,-5.8907,-5.898,-5.902,-5.9276,-5.9137,-5.9139,-5.9206,-5.9193,-5.927,-5.9276,-5.927,-5.9461,-5.9493,-5.9608,-5.9403,-5.9944,-5.9959,-5.9973,-6.0115,-6.0145,-6.0172,0,0,0,0,0,-5.8761,-5.8943,-5.8912,-5.8949,-5.913,-5.9283,-5.9306,-5.9296,-5.9215,-5.9303,-5.9329,-5.9274,-5.9575,-5.948,-5.9516,-5.9636,-5.9937,-5.9955,-5.9972,-6.0102,-6.0139,-6.0171,0,0,0,0,0,0,-5.8882,-5.8952,-5.8919,-5.913,-5.9202,-5.9266,-5.9376,-5.9336,-5.9431,-5.9415,-5.9397,-5.9416,-5.9603,-5.9637,-5.953,-5.9858,-5.9743,-5.9769,-5.983,-5.9865,-5.9893,-5.9882,-5.9414,0,0,0,0,0,-5.8934,-5.9054,-5.9107,-5.9288,-5.9326,-5.9345,-5.9411,-5.9398,-5.947,-5.95,-5.954,-5.9611,-5.9722,-5.9795,-5.9899,-6.0118,-6.0134,-6.0219,-6.0247,-6.027,-6.0293,-6.0411,-6.0449,-6.0039,-6.0039,-6.0039,0,0,-5.9041,-5.9094,-5.9171,-5.9314,-5.9368,-5.9491,-5.9371,-5.9506,-5.9597,-5.9519,-5.9692,-5.9724,-5.9802,-6.0003,-6.0093,-6.0037,-6.0409,-6.0293,-6.0311,-6.0321,-6.0433,-6.0472,-6.0506,-6.0051,-6.0049,-6.0047,0,0,-5.93,-5.9352,-5.9509,-5.9565,-5.9648,-5.966,-5.9697,-5.9768,-5.9787,-5.996,-5.9904,-6.001,-6.0201,-6.026,-6.0314,-6.0594,-6.0546,-6.0628,-6.0777,-6.0892,-6.0924,-6.0953,-6.1053,-6.1089,-6.065,-6.065,-6.0651,0,-5.9423,-5.9608,-5.9594,-5.9734,-5.9799,-5.9735,-5.9893,-5.9947,-6.006,-6.0105,-6.004,-6.0279,-6.0327,-6.054,-6.0608,-6.0654,-6.0696,-6.062,-6.0921,-6.0949,-6.0976,-6.1071,-6.1108,-6.066,-6.0659,-6.0658,-6.0657,0,-5.9755,-5.9883,-5.9999,-6.0111,-6.0188,-6.0336,-6.0344,-6.0423,-6.0403,-6.042,-6.0596,-6.0652,-6.0766,-6.0815,-6.0796,-6.1026,-6.0988,-6.0923,-6.0807,-6.1024,-6.1114,-6.115,-6.0674,-6.067,-6.0667,-6.0665,0,0,-6.0097,-6.0198,-6.0241,-6.0291,-6.0377,-6.0476,-6.062,-6.0733,-6.0801,-6.088,-6.1,-6.1163,-6.1103,-6.1165,-6.1151,-6.1252,-6.147,-6.1174,-6.1175,-6.1227,-6.1726,-6.1776,-6.1818,-6.1438,-6.1445,-6.145,-6.172,0,-6.0361,-6.0616,-6.0607,-6.0843,-6.0962,-6.0902,-6.1027,-6.1093,-6.1113,-6.1214,-6.1235,-6.1351,-6.1263,-6.13,-6.1397,-6.1423,-6.157,-6.1403,-6.1549,-6.1554,-6.1533,-6.1865,-6.1918,-6.217,-6.1754,-6.176,-6.1765,0,-6.0705,-6.0797,-6.1046,-6.1114,-6.1163,-6.1277,-6.1379,-6.1477,-6.155,-6.1557,-6.1626,-6.1596,-6.174,-6.1619,-6.1818,-6.1704,-6.1763,-6.1784,-6.1794,-6.1808,-6.1674,-6.1889,-6.225,-6.2289,-6.1819,-6.1815,-6.1811,0,-6.0931,-6.1116,-6.1289,-6.1333,-6.1417,-6.1498,-6.1536,-6.1602,-6.167,-6.1758,-6.1802,-6.1906,-6.1963,-6.2043,-6.2041,-6.1953,-6.2241,-6.2121,-6.2251,-6.2251,-6.2315,-6.2312,-6.2692,-6.2352,-6.2351,-6.235,-6.235,0,-6.1228,-6.1383,-6.1391,-6.1498,-6.1669,-6.1656,-6.1825,-6.1854,-6.1913,-6.2023,-6.1976,-6.208,-6.207,-6.2175,-6.2173,-6.2338,-6.2363,-6.2372,-6.2371,-6.2378,-6.2377,-6.2417,-6.24,-6.236,-6.2358,-6.2356,-6.2354,0,-6.151,-6.1522,-6.1706,-6.177,-6.179,-6.1913,-6.1967,-6.2067,-6.2082,-6.2222,-6.2254,-6.2277,-6.2397,-6.2403,-6.254,-6.2539,-6.274,-6.2718,-6.2716,-6.2713,-6.2843,-6.2831,-6.3263,-6.3319,-6.2941,-6.2945,-6.2948,0,-6.17,-6.1817,-6.1894,-6.1965,-6.2009,-6.2124,-6.2193,-6.2184,-6.2258,-6.2349,-6.2438,-6.2554,-6.2646,-6.2841,-6.2869,-6.2974,-6.2954,-6.3099,-6.297,-6.2973,-6.2958,-6.2951,-6.2963,-6.3124,-6.3129,-6.3132,-6.3135,0,-6.2036,-6.2035,-6.2138,-6.2244,-6.2328,-6.241,-6.2486,-6.2546,-6.2546,-6.2631,-6.2754,-6.2826,-6.2967,-6.3082,-6.3184,-6.3221,-6.3179,-6.3175,-6.3211,-6.322,-6.3215,-6.322,-6.2786,-6.3165,-6.3162,-6.316,-6.3158,-6.3157,-6.2278,-6.2379,-6.245,-6.2565,-6.2622,-6.2694,-6.2791,-6.2818,-6.2921,-6.3037,-6.3024,-6.3161,-6.3228,-6.3361,-6.3406,-6.3512,-6.3462,-6.3514,-6.3527,-6.354,-6.3555,-6.3197,-6.353,-6.3529,-6.3528,-6.3528,-6.3527,0,-6.2612,-6.2654,-6.276,-6.2869,-6.296,-6.2912,-6.2993,-6.3072,-6.3193,-6.326,-6.3352,-6.3493,-6.3604,-6.3641,-6.3749,-6.3826,-6.3809,-6.3855,-6.385,-6.3859,-6.3593,-6.3552,-6.3867,-6.3867,-6.3867,-6.3867,-6.3867,-6.3867,-6.2797,-6.2967,-6.2975,-6.3171,-6.3211,-6.3346,-6.3396,-6.3462,-6.3516,-6.3676,-6.3769,-6.3792,-6.3847,-6.3958,-6.4057,-6.4065,-6.4107,-6.4161,-6.4161,-6.3912,-6.3878,-6.3845,-6.3806,-6.417,-6.4171,-6.4418,-6.4421,-6.4422]}]]